Bandera, Texas, United States (78003)
Lat: 29.73N, Lon: 99.07W
Wx Zone: TXZ187
Local Info
Past Weather Observations for Yesterday

NOTE: This archive is for the closest National Weather Service station to Bandera. Information may differ from the station used for current weather conditions.

Click here for Long-term Archive

Time Weather Temperature Dewpoint Humidity Pressure Winds Precip Visibility
23:51
Partly Cloudy
79°F / 26°C 75°F / 24°C 89% 29.98 in
(1015 mb)
SSE 9.2 mph
(SSE 15 kph)
- 9SM
22:51
Mostly Cloudy
79°F / 26°C 75°F / 24°C 89% 30.01 in
(1016 mb)
SSE 13.8 mph
(SSE 22 kph)
- 10SM
21:51
Partly Cloudy
81°F / 27°C 75°F / 24°C 84% 30.01 in
(1016 mb)
SSE 11.5 mph
(SSE 19 kph)
- 10SM
20:51
Clear
82°F / 28°C 75°F / 24°C 79% 29.98 in
(1015 mb)
SSE 16.1 mph
(SSE 26 kph)
- 10SM
19:51
Clear
82°F / 28°C 75°F / 24°C 79% 29.98 in
(1015 mb)
SSE 11.5 mph
(SSE 19 kph)
- 9SM
18:51
Overcast
84°F / 29°C 75°F / 24°C 74% 29.98 in
(1015 mb)
SE 10.4 mph
(SE 17 kph)
- 8SM
17:51
Mostly Cloudy
88°F / 31°C 75°F / 24°C 66% 29.95 in
(1014 mb)
SE 12.7 mph
(SE 20 kph)
- 8SM
16:51
Partly Cloudy
88°F / 31°C 75°F / 24°C 66% 29.95 in
(1014 mb)
SE 9.2 mph
(SE 15 kph)
- 7SM
15:51
Clear
88°F / 31°C 75°F / 24°C 66% 29.95 in
(1014 mb)
SSE 8.1 mph
(SSE 13 kph)
- 7SM
14:51
Mostly Cloudy
Hazy
88°F / 31°C 75°F / 24°C 66% 29.98 in
(1015 mb)
SE 9.2 mph
(SE 15 kph)
0.00 in
(0.00 mm)
6SM
13:51
Overcast
Hazy
86°F / 30°C 75°F / 24°C 70% 29.98 in
(1015 mb)
SE 11.5 mph
(SE 19 kph)
- 6SM
13:18
Overcast
86°F / 30°C 75°F / 24°C 70% 30.01 in
(1016 mb)
SE 8.1 mph
(SE 13 kph)
- 7SM
13:10
Overcast
86°F / 30°C 75°F / 24°C 70% 30.01 in
(1016 mb)
S 11.5 mph
(S 19 kph)
- 7SM
13:01
Overcast
84°F / 29°C 75°F / 24°C 74% 30.01 in
(1016 mb)
SSE 10.4 mph
(SSE 17 kph)
- 7SM
12:51
Overcast
86°F / 30°C 75°F / 24°C 70% 30.01 in
(1016 mb)
SE 13.8 mph
(SE 22 kph)
- 7SM
12:11
Fair
84°F / 29°C 75°F / 24°C 74% 30.01 in
(1016 mb)
SE 9.2 mph
(SE 15 kph)
- 8SM
11:51
Mostly Cloudy
82°F / 28°C 75°F / 24°C 79% 30.01 in
(1016 mb)
SE 12.7 mph
(SE 20 kph)
- 8SM
10:51
Partly Cloudy
82°F / 28°C 75°F / 24°C 79% 30.01 in
(1016 mb)
SSE 12.7 mph
(SSE 20 kph)
- 8SM
09:51
Mostly Cloudy
81°F / 27°C 75°F / 24°C 84% 30.01 in
(1016 mb)
SSE 13.8 mph
(SSE 22 kph)
- 8SM
09:44
Mostly Cloudy
81°F / 27°C 75°F / 24°C 84% 30.01 in
(1016 mb)
SSE 10.4 mph
(SSE 17 kph)
- 8SM
08:51
Overcast
79°F / 26°C 75°F / 24°C 89% 30.01 in
(1016 mb)
SSE 12.7 mph
(SSE 20 kph)
- 7SM
07:51
Overcast
Fog And Mist
77°F / 25°C 75°F / 24°C 94% 30.01 in
(1016 mb)
SSE 11.5 mph
(SSE 19 kph)
- 6SM
06:51
Overcast
Fog And Mist
77°F / 25°C 75°F / 24°C 94% 30.01 in
(1016 mb)
SSE 9.2 mph
(SSE 15 kph)
- 6SM
06:34
Overcast
Fog And Mist
77°F / 25°C 75°F / 24°C 94% 30.01 in
(1016 mb)
SE 10.4 mph
(SE 17 kph)
- 6SM
06:12
Overcast
Fog And Mist
77°F / 25°C 73°F / 23°C 89% 29.98 in
(1015 mb)
SE 12.7 mph
(SE 20 kph)
- 6SM
06:02
Overcast
Fog And Mist
75°F / 24°C 73°F / 23°C 94% 29.98 in
(1015 mb)
SE 10.4 mph
(SE 17 kph)
- 6SM
05:51
Overcast
Fog And Mist
75°F / 24°C 73°F / 23°C 94% 29.98 in
(1015 mb)
SE 9.2 mph
(SE 15 kph)
- 6SM
04:51
Overcast
75°F / 24°C 73°F / 23°C 94% 29.98 in
(1015 mb)
SE 5.8 mph
(SE 9 kph)
- 7SM
04:36
Overcast
75°F / 24°C 73°F / 23°C 94% 29.98 in
(1015 mb)
SE 8.1 mph
(SE 13 kph)
- 7SM
03:51
Overcast
77°F / 25°C 75°F / 24°C 94% 29.98 in
(1015 mb)
SSE 8.1 mph
(SSE 13 kph)
- 7SM
03:39
Overcast
77°F / 25°C 75°F / 24°C 94% 29.98 in
(1015 mb)
SSE 6.9 mph
(SSE 11 kph)
- 7SM
02:51
Overcast
Fog And Mist
75°F / 24°C 75°F / 24°C 100% 29.98 in
(1015 mb)
SE 8.1 mph
(SE 13 kph)
- 6SM
01:51
Overcast
Fog And Mist
77°F / 25°C 75°F / 24°C 94% 29.98 in
(1015 mb)
SE 11.5 mph
(SE 19 kph)
- 6SM
01:38
Overcast
77°F / 25°C 73°F / 23°C 89% 29.98 in
(1015 mb)
SE 11.5 mph
(SE 19 kph)
- 7SM
00:51
Overcast
77°F / 25°C 73°F / 23°C 89% 29.98 in
(1015 mb)
SE 12.7 mph
(SE 20 kph)
- 7SM
00:37
Overcast
77°F / 25°C 73°F / 23°C 89% 29.98 in
(1015 mb)
SE 11.5 mph
(SE 19 kph)
- 7SM
Time Weather Temperature Dewpoint Humidity Pressure Winds Precip Visibility


Weather for websites

WeatherForYou.com, LLC is not responsible for any damages or problems caused by this service. Current weather conditions are obtained from the closest station including government and personal stations which may have varying degrees of accuracy. Weather forecasts are derived from the NOAA NDFD. Like all things, this site belongs to Jesus Christ... He just trusts us to maintain it. If you have any questions or comments email webmaster@weatherforyou.com

Copyright © 2016, WeatherForYou.com LLC. All rights reserved.